星链-11731 (STARLINK-11731)

导读 | 豆包AI

STARLINK-11731是美国SpaceX公司星链(Starlink)星座中的低轨通信卫星,于2025年6月13日由美国发射入轨。该卫星运行在近地轨道,依托星链项目,旨在为全球提供高速宽带互联网服务,尤其改善偏远地区网络覆盖。它采用成熟的星链技术设计,配备霍尔推进器,具备自主避撞能力,服役寿命结束后会主动离轨并在大气层中焚毁,是星链全球互联网星座组网的重要组成部分。

基本信息
目录编号:
64371
目录名称:
STARLINK-11731
国际标识:
2025-127B
轨道中心:
EARTH
卫星名称:
星链-11731
卫星全名:
星链-11731 (STARLINK-11731)
卫星状态:
在轨 (已飞行323 天)
发射日期:
2025-06-13 UTC
国别 :
美国 (US)
星等 :
--
轨道信息
数据来源 国际轨道数据
星历时间: 2026-05-02T08:01:07+0800
10小时前
查看轨道信息
半长轴: 6734.247km
偏心率: 0.0001614
轨道倾角: 43.000°
近地点辐角 222.806°
升交点赤经 123.481°
平近点角 137.268°
近地点: 355.023km
远地点: 357.197km
周期: 91.663分钟
每日圈数: 15.709748
详细信息
固有亮度:
5
最大亮度:
2.5
卫星平台:
Starlink V1.0
覆盖范围:
全球
运营商:
太空探索技术公司
运营商所在国:
美国
制造商(研发单位):
太空探索技术公司
制造商所在国:
美国
使用方式:
暂无
卫星简介
Starlink 计划是 SpaceX 推出的全球卫星互联网项目,通过发射低轨道卫星,为全球尤其是偏远地区提供高速、低延迟的互联网服务。自 2019 年起,Starlink 已部署数千颗卫星,旨在缩小全球数字鸿沟,推动互联网普及。该项目还为军事、航空等行业提供通信支持,带来广泛经济效益。
2D轨道图
3D轨道图
轨道高度分析图
轨道倾角分析图
轨道综合分析图
查看轨道综合分析图